Météo par heure à Julianowo

Ce jour, 20 Juin, Dimanche

Heure Température Précipitation Vent Pression Humidité
00:00 +22°C° 0 mm 3 m/s 751 mmHg 76%
01:00 +21°C° 0 mm 3 m/s 751 mmHg 79%
02:00 +21°C° 0 mm 3 m/s 751 mmHg 82%
03:00 +20°C° 0 mm 3 m/s 751 mmHg 84%
04:00 +20°C° 0 mm 3 m/s 750 mmHg 86%
05:00 +22°C° 0 mm 4 m/s 751 mmHg 81%
06:00 +23°C° 0 mm 4 m/s 751 mmHg 75%
07:00 +25°C° 0 mm 4 m/s 751 mmHg 69%
08:00 +26°C° 0 mm 5 m/s 751 mmHg 64%
09:00 +28°C° 0 mm 6 m/s 751 mmHg 58%
10:00 +29°C° 0 mm 6 m/s 751 mmHg 52%
11:00 +29°C° 0 mm 6 m/s 751 mmHg 50%
12:00 +30°C° 0 mm 6 m/s 750 mmHg 47%
13:00 +32°C° 0 mm 6 m/s 750 mmHg 44%
14:00 +32°C° 0 mm 5 m/s 750 mmHg 45%
15:00 +32°C° 0 mm 5 m/s 749 mmHg 46%
16:00 +32°C° 0 mm 5 m/s 749 mmHg 47%
17:00 +30°C° 0 mm 4 m/s 749 mmHg 54%
18:00 +28°C° 0 mm 4 m/s 748 mmHg 60%
19:00 +27°C° 0 mm 4 m/s 748 mmHg 66%
20:00 +25°C° 0 mm 3 m/s 748 mmHg 70%
21:00 +24°C° 0 mm 3 m/s 748 mmHg 74%
22:00 +22°C° 0 mm 3 m/s 749 mmHg 78%
23:00 +21°C° 0 mm 3 m/s 748 mmHg 78%

Demain, 21 Juin, Lundi

Heure Température Précipitation Vent Pression Humidité
00:00 +21°C° 0 mm 3 m/s 748 mmHg 78%
01:00 +21°C° 0 mm 3 m/s 748 mmHg 79%
02:00 +20°C° 0 mm 3 m/s 748 mmHg 81%
03:00 +20°C° 0 mm 3 m/s 747 mmHg 83%
04:00 +20°C° 0 mm 3 m/s 747 mmHg 85%
05:00 +21°C° 0 mm 4 m/s 747 mmHg 80%
06:00 +23°C° 0 mm 4 m/s 747 mmHg 75%
07:00 +25°C° 0 mm 5 m/s 748 mmHg 70%
08:00 +26°C° 0 mm 5 m/s 748 mmHg 65%
09:00 +28°C° 0 mm 5 m/s 748 mmHg 61%
10:00 +29°C° 0 mm 5 m/s 748 mmHg 56%
11:00 +30°C° 0 mm 5 m/s 747 mmHg 54%
12:00 +30°C° 0 mm 5 m/s 747 mmHg 52%
13:00 +32°C° 0 mm 5 m/s 747 mmHg 50%
14:00 +32°C° 0 mm 5 m/s 747 mmHg 50%
15:00 +32°C° 0 mm 4 m/s 746 mmHg 50%
16:00 +32°C° 0 mm 4 m/s 746 mmHg 49%
17:00 +29°C° 0.1 mm 4 m/s 746 mmHg 58%
18:00 +28°C° 0.1 mm 3 m/s 746 mmHg 67%
19:00 +26°C° 0.1 mm 3 m/s 747 mmHg 75%
20:00 +24°C° 0.5 mm 3 m/s 747 mmHg 81%
21:00 +22°C° 0.5 mm 3 m/s 747 mmHg 87%
22:00 +20°C° 0.5 mm 2 m/s 747 mmHg 92%
23:00 +20°C° 0.4 mm 3 m/s 747 mmHg 93%

Après-demain, 22 Juin, Mardi

Heure Température Précipitation Vent Pression Humidité
00:00 +19°C° 0.4 mm 3 m/s 747 mmHg 93%
01:00 +19°C° 0.4 mm 3 m/s 747 mmHg 94%
02:00 +18°C° 0.1 mm 3 m/s 747 mmHg 95%
03:00 +18°C° 0.1 mm 3 m/s 747 mmHg 96%
04:00 +18°C° 0.1 mm 4 m/s 748 mmHg 97%
05:00 +19°C° 0.1 mm 4 m/s 748 mmHg 94%
06:00 +19°C° 0.1 mm 4 m/s 748 mmHg 90%
07:00 +20°C° 0.1 mm 4 m/s 749 mmHg 87%
08:00 +21°C° 0.1 mm 4 m/s 749 mmHg 82%
09:00 +22°C° 0.1 mm 4 m/s 749 mmHg 76%
10:00 +23°C° 0.1 mm 4 m/s 749 mmHg 71%
11:00 +26°C° 0 mm 3 m/s 749 mmHg 66%
12:00 +27°C° 0 mm 3 m/s 749 mmHg 62%
13:00 +28°C° 0 mm 3 m/s 749 mmHg 57%
14:00 +28°C° 0.4 mm 3 m/s 749 mmHg 59%
15:00 +28°C° 0.4 mm 3 m/s 750 mmHg 60%
16:00 +28°C° 0.4 mm 3 m/s 750 mmHg 62%
17:00 +27°C° 0.6 mm 3 m/s 750 mmHg 69%
18:00 +25°C° 0.6 mm 3 m/s 750 mmHg 75%
19:00 +24°C° 0.6 mm 3 m/s 750 mmHg 82%
20:00 +22°C° 0.1 mm 3 m/s 750 mmHg 85%
21:00 +20°C° 0.1 mm 3 m/s 751 mmHg 87%
22:00 +18°C° 0.1 mm 3 m/s 752 mmHg 90%
23:00 +17°C° 0 mm 3 m/s 752 mmHg 89%

23 Juin, Mercredi

Heure Température Précipitation Vent Pression Humidité
00:00 +17°C° 0 mm 3 m/s 752 mmHg 88%
01:00 +16°C° 0 mm 3 m/s 752 mmHg 87%
02:00 +14°C° 0 mm 3 m/s 752 mmHg 86%
03:00 +14°C° 0 mm 3 m/s 752 mmHg 84%
04:00 +14°C° 0 mm 2 m/s 752 mmHg 83%
05:00 +16°C° 0 mm 3 m/s 753 mmHg 76%
06:00 +17°C° 0 mm 3 m/s 753 mmHg 69%
07:00 +19°C° 0 mm 3 m/s 753 mmHg 62%
08:00 +21°C° 0 mm 3 m/s 753 mmHg 58%
09:00 +22°C° 0 mm 3 m/s 754 mmHg 55%
10:00 +25°C° 0 mm 2 m/s 754 mmHg 51%
11:00 +26°C° 0 mm 2 m/s 754 mmHg 50%
12:00 +27°C° 0 mm 2 m/s 754 mmHg 49%
13:00 +28°C° 0 mm 2 m/s 754 mmHg 48%
14:00 +28°C° 0 mm 2 m/s 754 mmHg 50%
15:00 +27°C° 0 mm 2 m/s 753 mmHg 52%
16:00 +27°C° 0 mm 2 m/s 753 mmHg 53%
17:00 +27°C° 0 mm 2 m/s 753 mmHg 58%
18:00 +26°C° 0 mm 2 m/s 753 mmHg 63%
19:00 +25°C° 0 mm 2 m/s 753 mmHg 67%
20:00 +23°C° 0 mm 2 m/s 754 mmHg 71%
21:00 +21°C° 0 mm 2 m/s 754 mmHg 75%
22:00 +19°C° 0 mm 3 m/s 754 mmHg 79%
23:00 +18°C° 0 mm 2 m/s 754 mmHg 80%

24 Juin, Jeudi

Heure Température Précipitation Vent Pression Humidité
00:00 +18°C° 0 mm 2 m/s 754 mmHg 82%
01:00 +17°C° 0 mm 2 m/s 754 mmHg 83%
02:00 +16°C° 0 mm 2 m/s 754 mmHg 82%
03:00 +16°C° 0 mm 2 m/s 754 mmHg 82%
04:00 +16°C° 0 mm 2 m/s 754 mmHg 81%
05:00 +17°C° 0 mm 2 m/s 754 mmHg 76%
06:00 +19°C° 0 mm 3 m/s 754 mmHg 71%
07:00 +21°C° 0 mm 3 m/s 754 mmHg 66%
08:00 +22°C° 0 mm 3 m/s 754 mmHg 63%
09:00 +25°C° 0 mm 3 m/s 754 mmHg 60%
10:00 +26°C° 0 mm 3 m/s 753 mmHg 58%
11:00 +27°C° 0 mm 2 m/s 753 mmHg 57%
12:00 +28°C° 0 mm 2 m/s 753 mmHg 57%
13:00 +28°C° 0 mm 2 m/s 752 mmHg 57%
14:00 +28°C° 1 mm 2 m/s 752 mmHg 61%
15:00 +28°C° 1 mm 3 m/s 752 mmHg 65%
16:00 +27°C° 1 mm 3 m/s 751 mmHg 69%
17:00 +25°C° 3.4 mm 3 m/s 751 mmHg 76%
18:00 +22°C° 3.4 mm 3 m/s 751 mmHg 83%
19:00 +20°C° 3.4 mm 3 m/s 750 mmHg 91%
20:00 +19°C° 1.1 mm 3 m/s 750 mmHg 91%
21:00 +19°C° 1.1 mm 3 m/s 750 mmHg 92%
22:00 +18°C° 1.1 mm 3 m/s 750 mmHg 92%
23:00 +18°C° 0 mm 3 m/s 750 mmHg 94%

25 Juin, Vendredi

Heure Température Précipitation Vent Pression Humidité
00:00 +17°C° 0 mm 3 m/s 750 mmHg 95%
01:00 +16°C° 0 mm 2 m/s 750 mmHg 96%
02:00 +16°C° 0 mm 2 m/s 750 mmHg 97%
03:00 +16°C° 0 mm 2 m/s 750 mmHg 97%
04:00 +16°C° 0 mm 2 m/s 749 mmHg 98%
05:00 +17°C° 0 mm 2 m/s 749 mmHg 95%
06:00 +19°C° 0 mm 3 m/s 749 mmHg 93%
07:00 +20°C° 0 mm 3 m/s 749 mmHg 91%
08:00 +20°C° 1.1 mm 3 m/s 749 mmHg 89%
09:00 +21°C° 1.1 mm 3 m/s 749 mmHg 87%
10:00 +23°C° 1.1 mm 2 m/s 749 mmHg 86%
11:00 +23°C° 0.8 mm 2 m/s 749 mmHg 85%
12:00 +23°C° 0.8 mm 2 m/s 749 mmHg 84%
13:00 +24°C° 0.8 mm 2 m/s 749 mmHg 83%
14:00 +22°C° 2.1 mm 3 m/s 748 mmHg 84%
15:00 +22°C° 2.1 mm 5 m/s 748 mmHg 85%
16:00 +22°C° 2.1 mm 6 m/s 748 mmHg 86%
17:00 +21°C° 1.3 mm 5 m/s 748 mmHg 89%
18:00 +20°C° 1.3 mm 5 m/s 749 mmHg 92%
19:00 +19°C° 1.3 mm 4 m/s 749 mmHg 95%
20:00 +18°C° 0.1 mm 4 m/s 750 mmHg 95%
21:00 +18°C° 0.1 mm 4 m/s 750 mmHg 95%
22:00 +17°C° 0.1 mm 4 m/s 750 mmHg 95%
23:00 +17°C° 0 mm 4 m/s 750 mmHg 95%
Voir plus

Nous avons besoin de votre consentement

Meteoprog et ses fournisseurs de services peuvent stocker et accéder à des données personnelles telles que des cookies, des identifiants d'appareils ou d'autres technologies similaires sur votre appareil et traiter ces données pour personnaliser le contenu et les publicités, ainsi que pour fournir des fonctionnalités de médias sociaux et analyser le trafic.

  • Stocker et/ou accéder à des informations sur votre appareil

    Des cookies, des identifiants d'appareils ou d'autres informations peuvent être stockés ou accessibles sur votre appareil aux fins indiquées ci-dessus.

  • Annonces et contenus personnalisés, mesure des annonces et des contenus, connaissance de l'audience et développement de produits

    Les annonces et le contenu peuvent être personnalisés en fonction d'un profil. D'autres données peuvent être ajoutées pour mieux personnaliser les annonces et le contenu. Les performances des publicités et du contenu peuvent être mesurées. Il est possible d'obtenir des informations sur le public qui a vu les publicités et le contenu. Ces données peuvent être utilisées pour développer ou améliorer l'expérience de l'utilisateur, les systèmes et les logiciels.

En cliquant sur "J'accepte", vous autorisez l'utilisation de cookies, des identifiants d'appareils, des balises web ou d'autres technologies similaires. Vos paramètres peuvent être modifiés dans le navigateur de votre appareil.

Dans certains cas, des intérêts légitimes peuvent être invoqués plutôt qu'un consentement. Vous pouvez en savoir plus à ce sujet dans notre Politique de confidentialité et de cookies.